Regional Weather Roundup
Issued by NWS

Home | Current Version | Previous Version | Graphics & Text | Print | Product List | Glossary On
Versions: 1 2 3 4 5 6 7 8 9 10 11 12 13 14 15 16 17 18 19 20 21 22 23 24 25 26 27
000
ASUS45 KCYS 250810
RWRWY

WYOMING REGIONAL WEATHER ROUNDUP
NATIONAL WEATHER SERVICE CHEYENNE WY
200 AM MDT FRI MAY 25 2018

NOTE:  "FAIR" INDICATES FEW OR NO CLOUDS BELOW 12,000 FEET
WITH NO SIGNIFICANT WEATHER AND/OR OBSTRUCTIONS TO VISIBILITY.

WYZ001-250900-
YELLOWSTONE NATIONAL PARK

CITY           SKY/WX    TMP DP  RH WIND       PRES   REMARKS
LK YELLOWSTONE NOT AVBL
W YELLOWSTONE  NOT AVBL

$$
WYZ002>013-054>058-071-098>099-250900-
NORTHERN WYOMING

CITY           SKY/WX    TMP DP  RH WIND       PRES   REMARKS
JACKSON        FAIR      41  41 100 N5        30.22F
CODY           FAIR      58  43  57 W3        30.09S
GREYBULL       FAIR      60  51  72 SE5       30.01S
WORLAND        FAIR      54  50  86 E3        30.02S
SHERIDAN       MOCLDY    55  51  86 W5        29.99S
BUFFALO        FAIR      60  46  59 W7        30.05R
GILLETTE       FAIR      51  48  89 S8        30.00R
NEWCASTLE      FAIR      54  46  76 N7        29.99S

$$
WYZ014>020-022>026-101>103-250900-
CENTRAL WYOMING

CITY           SKY/WX    TMP DP  RH WIND       PRES   REMARKS
BIG PINEY      FAIR      41  38  89 CALM      30.23S
PINEDALE       FAIR      39  37  93 CALM      30.23S
DUBOIS         FAIR      43  37  81 W10       30.21R
LANDER         FAIR      54  39  57 VRB7      30.10S
RIVERTON       FAIR      54  43  66 NW13      30.11R
CASPER         FAIR      53  46  77 W3        30.08S
DOUGLAS        FAIR      48  47  96 N6        30.06F

$$
WYZ021-027>030-104>119-250900-
SOUTHERN WYOMING

CITY           SKY/WX    TMP DP  RH WIND       PRES   REMARKS
EVANSTON       FAIR      54  38  54 SE5       30.21F
FORT BRIDGER   FAIR      51  40  64 E7        30.24F
ROCK SPRINGS   FAIR      50  39  66 S7        30.20S
DIXON          FAIR      47  35  62 NE5       30.22S
RAWLINS        FAIR      48  35  60 CALM      30.19S
SARATOGA       FAIR      46  34  61 S3        30.21S
LARAMIE        FAIR      43  35  73 S6        30.21S
CHEYENNE       FAIR      52  42  69 W6        30.14F
TORRINGTON     FAIR      54  53  97 NW5       30.00S
PINE BLUFFS    FAIR      48  46  93 SW3       30.10R

$$




USA.gov is the U.S. government's official web portal to all federal, state and local government web resources and services.